Flag for U.S.A. Weather past 2 weeks in Paradise, California, U.S.A.

Now
59 °F

Clear.


Feels Like: 59 °F
Forecast: 42 / 62 °F
Wind: No wind

Location: Chico Municipal

Current Time: Mar 4, 2015 at 7:34:34 PM

Latest Report: Mar 4, 2015 at 6:55 PM


Visibility: 10 mi

Pressure: 30.17 "Hg

Humidity: 39%

Dew point: 34 °F

Location of ParadiseLocation

Historic Weather in Paradise — Graph

°F

Paradise temperature yesterday

Maximum temperature yesterday: 64 °F (at 1:52 PM)
Minimum temperature yesterday: 37 °F (at 4:55 AM)
Average temperature yesterday: 48 °F

Past Weeks' High & Low Weather Summary

 TemperatureHumidityPressure
High72 °F (Feb 20, 2:59 PM)100% (Feb 18, 3:35 AM)30.36 "Hg (Feb 18, 3:35 AM)
Low36 °F (Feb 24, 3:15 AM)12% (Feb 22, 6:15 PM)29.64 "Hg (Feb 27, 4:47 PM)
Average50 °F64%30.01 "Hg
* Reported Feb 17 5:55 PM — Mar 4 5:55 PM, Paradise, Weather by CustomWeather, © 2015

Note: Actual official high and low records may vary slightly from our data, if they occured in-between our weather recording intervals... More about our weather records

Advertising

Paradise weather history for previous 24 hours

 ConditionsComfort  
Time TempWeatherWind HumidityBarometerVisibility
5:55 PM
Wed, Mar 4
63 °FSunny.7 mph32%30.15 "Hg10 mi
4:47 PM66 °FPassing clouds.6 mph22%30.14 "Hg80 mi
2:47 PM64 °FSunny.9 mph24%30.13 "Hg80 mi
1:47 PM64 °FSunny.6 mph24%30.13 "Hg80 mi
11:47 AM61 °FSunny.No wind27%30.16 "Hg80 mi
10:47 AM57 °FSunny.No wind36%30.16 "Hg80 mi
9:47 AM50 °FPassing clouds.6 mph47%30.15 "Hg80 mi
8:47 AM46 °FPassing clouds.6 mph57%30.14 "Hg80 mi
7:47 AM39 °FPassing clouds.6 mph65%30.10 "Hg80 mi
6:47 AM37 °FPassing clouds.6 mph65%30.08 "Hg80 mi
5:35 AM37 °FClear.No wind70%30.06 "Hg10 mi
5:15 AM37 °FClear.No wind70%30.06 "Hg10 mi
4:55 AM36 °FClear.No wind81%30.05 "Hg10 mi
4:35 AM37 °FClear.No wind70%30.05 "Hg10 mi
4:15 AM37 °FClear.No wind75%30.04 "Hg10 mi
3:55 AM37 °FClear.No wind75%30.04 "Hg10 mi
3:35 AM37 °FClear.No wind70%30.04 "Hg10 mi
3:15 AM41 °FClear.No wind66%30.04 "Hg10 mi
2:55 AM37 °FClear.No wind75%30.04 "Hg10 mi
2:35 AM39 °FClear.No wind70%30.05 "Hg10 mi
2:15 AM41 °FClear.No wind66%30.05 "Hg10 mi
1:55 AM41 °FClear.No wind66%30.05 "Hg10 mi
1:35 AM37 °FClear.7 mph75%30.05 "Hg10 mi
12:55 AM45 °FClear.No wind57%30.05 "Hg10 mi
12:35 AM45 °FClear.No wind57%30.04 "Hg10 mi
12:15 AM43 °FClear.No wind66%30.04 "Hg10 mi
11:55 PM
Tue, Mar 3
43 °FClear.No wind66%30.04 "Hg10 mi
11:35 PM45 °FClear.No wind61%30.04 "Hg10 mi
11:15 PM46 °FClear.No wind53%30.03 "Hg10 mi
10:55 PM48 °FClear.No wind54%30.03 "Hg10 mi
10:35 PM46 °FClear.No wind57%30.03 "Hg10 mi
10:15 PM48 °FClear.No wind54%30.02 "Hg10 mi
9:55 PM46 °FClear.No wind57%30.02 "Hg10 mi
9:35 PM48 °FClear.No wind54%30.01 "Hg10 mi
9:15 PM48 °FClear.No wind54%30.00 "Hg10 mi
8:55 PM50 °FClear.5 mph47%29.99 "Hg10 mi
8:35 PM54 °FClear.No wind38%29.99 "Hg10 mi
8:15 PM54 °FClear.5 mph38%29.98 "Hg10 mi
7:55 PM54 °FClear.3 mph41%29.97 "Hg10 mi
7:15 PM55 °FClear.5 mph41%29.97 "Hg10 mi
Weather by CustomWeather, © 2015

See weather overviewHow to use our weather pages